Time,TemperatureF,DewpointF,PressureIn,WindDirection,WindDirectionDegrees,WindSpeedMPH,WindSpeedGustMPH,Humidity,HourlyPrecipIn,Conditions,Clouds,dailyrainin,SolarRadiationWatts/m^2,SoftwareType,DateUTC
2013-02-03 00:00:00,36.0,19.6,30.09,NNW,338,8.1,12.7,51,0.00,CLR,SCT,0.00,0.0,WeatherDisplay:10.37,2013-02-03 06:00:00,
2013-02-03 00:05:00,35.8,19.4,30.09,NW,315,4.5,12.7,51,0.00,CLR,SCT,0.00,0.0,WeatherDisplay:10.37,2013-02-03 06:05:00,
2013-02-03 00:10:00,35.8,19.4,30.09,NNE,22,8.1,12.7,51,0.00,CLR,SCT,0.00,0.0,WeatherDisplay:10.37,2013-02-03 06:10:00,
2013-02-03 00:15:00,35.6,19.2,30.09,NNW,338,6.9,10.4,51,0.00,CLR,SCT,0.00,0.0,WeatherDisplay:10.37,2013-02-03 06:15:00,
2013-02-03 00:20:00,35.2,19.4,30.09,WSW,248,6.0,9.2,52,0.00,CLR,SCT,0.00,0.0,WeatherDisplay:10.37,2013-02-03 06:20:00,
2013-02-03 00:25:00,35.1,19.2,30.12,WSW,248,4.7,10.0,52,0.00,CLR,SCT,0.00,0.0,WeatherDisplay:10.37,2013-02-03 06:25:00,
2013-02-03 00:30:00,34.9,19.0,30.12,West,270,6.7,8.1,52,0.00,CLR,SCT,0.00,0.0,WeatherDisplay:10.37,2013-02-03 06:30:00,
2013-02-03 00:35:00,34.9,19.5,30.12,NW,315,7.1,10.4,53,0.00,CLR,SCT,0.00,0.0,WeatherDisplay:10.37,2013-02-03 06:35:00,
2013-02-03 00:40:00,34.5,19.1,30.12,WNW,292,2.4,4.6,53,0.00,CLR,SCT,0.00,0.0,WeatherDisplay:10.37,2013-02-03 06:40:00,
2013-02-03 00:45:00,34.3,19.4,30.12,South,180,2.2,3.5,54,0.00,CLR,SCT,0.00,0.0,WeatherDisplay:10.37,2013-02-03 06:45:00,
2013-02-03 00:50:00,33.8,19.7,30.12,NNW,338,2.9,8.1,56,0.00,CLR,SCT,0.00,0.0,WeatherDisplay:10.37,2013-02-03 06:50:00,
2013-02-03 00:55:00,33.4,20.2,30.09,NNW,338,3.8,4.6,58,0.00,CLR,SCT,0.00,0.0,WeatherDisplay:10.37,2013-02-03 06:55:00,
2013-02-03 01:01:00,33.1,20.3,30.09,NNW,338,2.2,4.3,59,0.00,CLR,SCT,0.00,0.0,WeatherDisplay:10.37,2013-02-03 07:01:00,
2013-02-03 01:06:00,32.7,20.4,30.09,WSW,248,3.6,5.8,60,0.00,CLR,SCT,0.00,0.0,WeatherDisplay:10.37,2013-02-03 07:06:00,
2013-02-03 01:11:00,32.4,20.4,30.12,WNW,292,4.5,6.9,61,0.00,CLR,SCT,0.00,0.0,WeatherDisplay:10.37,2013-02-03 07:11:00,
2013-02-03 01:16:00,32.2,20.6,30.12,ENE,68,3.8,8.1,62,0.00,CLR,SCT,0.00,0.0,WeatherDisplay:10.37,2013-02-03 07:16:00,
2013-02-03 01:21:00,32.0,20.8,30.12,NE,45,6.0,8.1,63,0.00,CLR,SCT,0.00,0.0,WeatherDisplay:10.37,2013-02-03 07:21:00,
2013-02-03 01:26:00,31.8,20.6,30.12,NNW,338,4.5,5.9,63,0.00,CLR,SCT,0.00,0.0,WeatherDisplay:10.37,2013-02-03 07:26:00,
2013-02-03 01:31:00,31.5,20.3,30.12,WNW,292,4.5,6.9,63,0.00,CLR,SCT,0.00,0.0,WeatherDisplay:10.37,2013-02-03 07:31:00,
2013-02-03 01:36:00,31.5,20.7,30.12,NNW,338,6.0,6.0,64,0.00,CLR,SCT,0.00,0.0,WeatherDisplay:10.37,2013-02-03 07:36:00,
2013-02-03 01:41:00,31.3,20.9,30.12,WNW,292,5.6,6.9,65,0.00,CLR,SCT,0.00,0.0,WeatherDisplay:10.37,2013-02-03 07:41:00,
2013-02-03 01:47:00,31.1,20.7,30.12,NNE,22,4.5,6.9,65,0.00,CLR,SCT,0.00,0.0,WeatherDisplay:10.37,2013-02-03 07:47:00,
2013-02-03 01:52:00,31.1,19.2,30.12,WNW,292,7.4,12.8,61,0.00,CLR,SCT,0.00,0.0,WeatherDisplay:10.37,2013-02-03 07:52:00,
2013-02-03 01:57:00,30.9,17.5,30.15,North,0,7.1,10.0,57,0.00,CLR,SCT,0.00,0.0,WeatherDisplay:10.37,2013-02-03 07:57:00,
2013-02-03 02:02:00,31.1,15.5,30.15,NNW,338,9.2,12.7,52,0.00,CLR,SCT,0.00,0.0,WeatherDisplay:10.37,2013-02-03 08:02:00,
2013-02-03 02:07:00,31.1,13.2,30.15,WNW,292,12.8,19.6,47,0.00,CLR,SCT,0.00,0.0,WeatherDisplay:10.37,2013-02-03 08:07:00,
2013-02-03 02:12:00,31.1,12.7,30.15,NNE,22,8.1,12.7,46,0.00,CLR,SCT,0.00,0.0,WeatherDisplay:10.37,2013-02-03 08:12:00,
2013-02-03 02:17:00,30.9,13.0,30.15,NNW,338,8.1,13.8,47,0.00,CLR,SCT,0.00,0.0,WeatherDisplay:10.37,2013-02-03 08:17:00,
2013-02-03 02:22:00,30.7,12.9,30.18,NNW,338,6.9,12.7,47,0.00,CLR,SCT,0.00,0.0,WeatherDisplay:10.37,2013-02-03 08:22:00,
2013-02-03 02:27:00,30.4,13.0,30.18,WSW,248,5.6,15.0,48,0.00,CLR,SCT,0.00,0.0,WeatherDisplay:10.37,2013-02-03 08:27:00,
2013-02-03 02:33:00,30.2,12.8,30.18,NNW,338,6.2,13.2,48,0.00,CLR,SCT,0.00,0.0,WeatherDisplay:10.37,2013-02-03 08:33:00,
2013-02-03 02:38:00,30.0,12.7,30.18,WNW,292,6.9,13.8,48,0.00,CLR,SCT,0.00,0.0,WeatherDisplay:10.37,2013-02-03 08:38:00,
2013-02-03 02:43:00,29.8,12.5,30.18,NNW,338,5.6,10.7,48,0.00,CLR,SCT,0.00,0.0,WeatherDisplay:10.37,2013-02-03 08:43:00,
2013-02-03 02:48:00,29.7,11.9,30.18,North,0,10.2,14.5,47,0.00,CLR,SCT,0.00,0.0,WeatherDisplay:10.37,2013-02-03 08:48:00,
2013-02-03 02:53:00,29.5,11.7,30.18,NW,315,6.0,9.2,47,0.00,CLR,SCT,0.00,0.0,WeatherDisplay:10.37,2013-02-03 08:53:00,
2013-02-03 02:58:00,29.3,12.0,30.18,WNW,292,7.8,10.7,48,0.00,CLR,SCT,0.00,0.0,WeatherDisplay:10.37,2013-02-03 08:58:00,
2013-02-03 03:03:00,29.1,11.4,30.18,WNW,292,6.2,9.4,47,0.00,CLR,SCT,0.00,0.0,WeatherDisplay:10.37,2013-02-03 09:03:00,
2013-02-03 03:08:00,28.8,11.0,30.18,NW,315,5.4,10.4,47,0.00,CLR,SCT,0.00,0.0,WeatherDisplay:10.37,2013-02-03 09:08:00,
2013-02-03 03:13:00,28.6,11.3,30.18,WNW,292,6.9,11.5,48,0.00,CLR,SCT,0.00,0.0,WeatherDisplay:10.37,2013-02-03 09:13:00,
2013-02-03 03:19:00,28.4,11.6,30.18,NNW,338,6.2,8.1,49,0.00,CLR,SCT,0.00,0.0,WeatherDisplay:10.37,2013-02-03 09:19:00,
2013-02-03 03:24:00,28.4,11.6,30.15,NNW,338,7.1,12.7,49,0.00,CLR,SCT,0.00,0.0,WeatherDisplay:10.37,2013-02-03 09:24:00,
2013-02-03 03:29:00,28.4,12.1,30.15,NNE,22,8.5,11.5,50,0.00,CLR,SCT,0.00,0.0,WeatherDisplay:10.37,2013-02-03 09:29:00,
2013-02-03 03:34:00,28.2,11.5,30.15,WNW,292,8.1,13.7,49,0.00,CLR,SCT,0.00,0.0,WeatherDisplay:10.37,2013-02-03 09:34:00,
2013-02-03 03:39:00,28.0,11.8,30.15,North,0,6.0,9.2,50,0.00,CLR,SCT,0.00,0.0,WeatherDisplay:10.37,2013-02-03 09:39:00,
2013-02-03 03:44:00,27.9,12.1,30.15,NNW,338,6.7,8.1,51,0.00,CLR,SCT,0.00,0.0,WeatherDisplay:10.37,2013-02-03 09:44:00,
2013-02-03 03:49:00,27.7,11.9,30.15,WNW,292,6.0,9.8,51,0.00,CLR,SCT,0.00,0.0,WeatherDisplay:10.37,2013-02-03 09:49:00,
2013-02-03 03:54:00,27.5,11.7,30.18,NNW,338,4.5,8.1,51,0.00,CLR,SCT,0.00,0.0,WeatherDisplay:10.37,2013-02-03 09:54:00,
2013-02-03 03:59:00,27.3,11.5,30.18,NNW,338,6.4,11.5,51,0.00,CLR,SCT,0.00,0.0,WeatherDisplay:10.37,2013-02-03 09:59:00,
2013-02-03 04:04:00,27.1,11.4,30.18,WNW,292,7.4,7.4,51,0.00,CLR,SCT,0.00,0.0,WeatherDisplay:10.37,2013-02-03 10:04:00,
2013-02-03 04:09:00,27.0,11.2,30.18,WNW,292,6.4,6.9,51,0.00,CLR,SCT,0.00,0.0,WeatherDisplay:10.37,2013-02-03 10:09:00,
2013-02-03 04:14:00,26.8,11.5,30.18,WNW,292,4.0,9.2,52,0.00,CLR,SCT,0.00,0.0,WeatherDisplay:10.37,2013-02-03 10:14:00,
2013-02-03 04:19:00,26.8,11.5,30.18,NNW,338,4.7,8.1,52,0.00,CLR,SCT,0.00,0.0,WeatherDisplay:10.37,2013-02-03 10:19:00,
2013-02-03 04:25:00,26.4,11.2,30.15,WSW,248,6.2,8.1,52,0.00,CLR,SCT,0.00,0.0,WeatherDisplay:10.37,2013-02-03 10:25:00,
2013-02-03 04:30:00,26.4,10.7,30.15,North,0,8.1,13.8,51,0.00,CLR,SCT,0.00,0.0,WeatherDisplay:10.37,2013-02-03 10:30:00,
2013-02-03 04:35:00,26.4,10.3,30.15,WNW,292,5.4,9.2,50,0.00,CLR,SCT,0.00,0.0,WeatherDisplay:10.37,2013-02-03 10:35:00,
2013-02-03 04:40:00,26.2,10.5,30.18,WNW,292,5.4,10.4,51,0.00,CLR,SCT,0.00,0.0,WeatherDisplay:10.37,2013-02-03 10:40:00,
2013-02-03 04:45:00,26.1,10.4,30.18,NW,315,6.2,10.0,51,0.00,CLR,SCT,0.00,0.0,WeatherDisplay:10.37,2013-02-03 10:45:00,
2013-02-03 04:50:00,26.1,9.9,30.18,NW,315,4.5,5.8,50,0.00,CLR,SCT,0.00,0.0,WeatherDisplay:10.37,2013-02-03 10:50:00,
2013-02-03 04:55:00,25.9,10.2,30.18,WSW,248,4.0,6.9,51,0.00,CLR,SCT,0.00,0.0,WeatherDisplay:10.37,2013-02-03 10:55:00,
2013-02-03 05:00:00,25.7,10.0,30.18,NNW,338,4.9,8.1,51,0.00,CLR,SCT,0.00,0.0,WeatherDisplay:10.37,2013-02-03 11:00:00,
2013-02-03 05:05:00,25.7,10.5,30.18,NW,315,6.2,9.2,52,0.00,CLR,SCT,0.00,0.0,WeatherDisplay:10.37,2013-02-03 11:05:00,
2013-02-03 05:10:00,25.3,10.1,30.18,NNW,338,2.6,4.6,52,0.00,CLR,SCT,0.00,0.0,WeatherDisplay:10.37,2013-02-03 11:10:00,
2013-02-03 05:15:00,25.2,10.4,30.18,WSW,248,2.2,4.6,53,0.00,CLR,SCT,0.00,0.0,WeatherDisplay:10.37,2013-02-03 11:15:00,
2013-02-03 05:20:00,25.0,10.2,30.18,NNW,338,2.4,4.0,53,0.00,CLR,SCT,0.00,0.0,WeatherDisplay:10.37,2013-02-03 11:20:00,
2013-02-03 05:25:00,25.0,9.4,30.21,North,0,3.6,6.2,51,0.00,CLR,SCT,0.00,0.0,WeatherDisplay:10.37,2013-02-03 11:25:00,
2013-02-03 05:30:00,25.0,8.5,30.21,NNW,338,2.6,5.8,49,0.00,CLR,SCT,0.00,0.0,WeatherDisplay:10.37,2013-02-03 11:30:00,
2013-02-03 05:36:00,24.8,8.3,30.21,NNE,22,3.1,5.8,49,0.00,CLR,SCT,0.00,0.0,WeatherDisplay:10.37,2013-02-03 11:36:00,
2013-02-03 05:41:00,24.6,8.6,30.18,WNW,292,2.9,4.6,50,0.00,CLR,SCT,0.00,0.0,WeatherDisplay:10.37,2013-02-03 11:41:00,
2013-02-03 05:46:00,24.4,8.4,30.18,ESE,112,2.6,6.9,50,0.00,CLR,SCT,0.00,0.0,WeatherDisplay:10.37,2013-02-03 11:46:00,
2013-02-03 05:51:00,24.4,8.9,30.18,NNE,22,2.4,4.3,51,0.00,CLR,SCT,0.00,0.0,WeatherDisplay:10.37,2013-02-03 11:51:00,
2013-02-03 05:56:00,24.1,9.0,30.18,WNW,292,2.0,3.5,52,0.00,CLR,SCT,0.00,0.0,WeatherDisplay:10.37,2013-02-03 11:56:00,
2013-02-03 06:01:00,23.7,8.6,30.18,North,0,2.6,4.6,52,0.00,CLR,SCT,0.00,0.0,WeatherDisplay:10.37,2013-02-03 12:01:00,
2013-02-03 06:06:00,23.5,8.5,30.18,NNE,22,1.6,2.3,52,0.00,CLR,SCT,0.00,0.0,WeatherDisplay:10.37,2013-02-03 12:06:00,
2013-02-03 06:11:00,23.5,8.5,30.15,ENE,68,1.6,2.3,52,0.00,CLR,SCT,0.00,0.0,WeatherDisplay:10.37,2013-02-03 12:11:00,
2013-02-03 06:16:00,23.4,8.3,30.15,East,90,1.1,2.3,52,0.00,CLR,SCT,0.00,0.0,WeatherDisplay:10.37,2013-02-03 12:16:00,
2013-02-03 06:22:00,23.0,8.4,30.15,WNW,292,0.0,0.0,53,0.00,CLR,SCT,0.00,0.0,WeatherDisplay:10.37,2013-02-03 12:22:00,
2013-02-03 06:27:00,22.8,8.2,30.15,NNW,338,1.1,2.3,53,0.00,CLR,SCT,0.00,0.0,WeatherDisplay:10.37,2013-02-03 12:27:00,
2013-02-03 06:32:00,22.5,8.3,30.15,West,270,1.6,2.3,54,0.00,CLR,SCT,0.00,0.0,WeatherDisplay:10.37,2013-02-03 12:32:00,
2013-02-03 06:37:00,21.7,8.0,30.15,West,270,1.1,1.1,55,0.00,CLR,SCT,0.00,0.0,WeatherDisplay:10.37,2013-02-03 12:37:00,
2013-02-03 06:42:00,21.6,7.5,30.15,West,270,0.0,0.0,54,0.00,CLR,SCT,0.00,0.0,WeatherDisplay:10.37,2013-02-03 12:42:00,
2013-02-03 06:47:00,21.4,7.3,30.15,West,270,0.0,0.0,54,0.00,CLR,SCT,0.00,0.0,WeatherDisplay:10.37,2013-02-03 12:47:00,
2013-02-03 06:52:00,21.0,7.4,30.15,West,270,0.0,0.0,55,0.00,CLR,SCT,0.00,0.0,WeatherDisplay:10.37,2013-02-03 12:52:00,
2013-02-03 06:57:00,20.5,7.3,30.15,West,270,0.0,0.0,56,0.00,CLR,SCT,0.00,0.0,WeatherDisplay:10.37,2013-02-03 12:57:00,
2013-02-03 07:02:00,20.5,7.6,30.15,West,270,0.0,0.0,57,0.00,CLR,SCT,0.00,0.0,WeatherDisplay:10.37,2013-02-03 13:02:00,
2013-02-03 07:07:00,20.3,7.5,30.15,West,270,0.0,1.1,57,0.00,OVC,SCT,0.00,0.0,WeatherDisplay:10.37,2013-02-03 13:07:00,
2013-02-03 07:12:00,19.9,7.9,30.12,West,270,0.0,0.0,59,0.00,OVC,SCT,0.00,0.0,WeatherDisplay:10.37,2013-02-03 13:12:00,
2013-02-03 07:18:00,19.9,7.9,30.12,West,270,0.0,0.0,59,0.00,OVC,SCT,0.00,0.0,WeatherDisplay:10.37,2013-02-03 13:18:00,
2013-02-03 07:23:00,19.8,7.7,30.12,West,270,0.0,0.0,59,0.00,OVC,SCT,0.00,0.0,WeatherDisplay:10.37,2013-02-03 13:23:00,
2013-02-03 07:28:00,19.6,7.2,30.12,ESE,112,0.0,0.0,58,0.00,OVC,SCT,0.00,0.0,WeatherDisplay:10.37,2013-02-03 13:28:00,
2013-02-03 07:33:00,19.4,7.0,30.12,ESE,112,0.0,0.0,58,0.00,OVC,SCT,0.00,0.0,WeatherDisplay:10.37,2013-02-03 13:33:00,
2013-02-03 07:38:00,19.4,7.4,30.15,ESE,112,0.0,0.0,59,0.00,OVC,SCT,0.00,0.0,WeatherDisplay:10.37,2013-02-03 13:38:00,
2013-02-03 07:43:00,19.4,9.2,30.15,WSW,248,2.2,2.6,64,0.00,OVC,SCT,0.00,0.0,WeatherDisplay:10.37,2013-02-03 13:43:00,
2013-02-03 07:48:00,19.6,10.4,30.15,WSW,248,2.4,3.5,67,0.00,OVC,SCT,0.00,0.0,WeatherDisplay:10.37,2013-02-03 13:48:00,
2013-02-03 07:53:00,20.1,11.2,30.15,West,270,1.6,2.3,68,0.00,OVC,SCT,0.00,0.0,WeatherDisplay:10.37,2013-02-03 13:53:00,
2013-02-03 07:58:00,20.3,11.1,30.15,WNW,292,1.1,1.1,67,0.00,OVC,SCT,0.00,0.0,WeatherDisplay:10.37,2013-02-03 13:58:00,
2013-02-03 08:03:00,20.5,11.3,30.15,West,270,0.0,0.0,67,0.00,OVC,SCT,0.00,0.0,WeatherDisplay:10.37,2013-02-03 14:03:00,
2013-02-03 08:08:00,20.5,10.2,30.15,WSW,248,2.6,3.3,64,0.00,OVC,SCT,0.00,0.0,WeatherDisplay:10.37,2013-02-03 14:08:00,
2013-02-03 08:13:00,21.2,10.6,30.15,SSW,202,1.6,3.5,63,0.00,OVC,SCT,0.00,0.0,WeatherDisplay:10.37,2013-02-03 14:13:00,
2013-02-03 08:18:00,21.7,11.1,30.15,South,180,1.6,2.3,63,0.00,OVC,SCT,0.00,0.0,WeatherDisplay:10.37,2013-02-03 14:18:00,
2013-02-03 08:23:00,21.9,10.1,30.12,WSW,248,2.6,3.5,60,0.00,OVC,SCT,0.00,0.0,WeatherDisplay:10.37,2013-02-03 14:23:00,
2013-02-03 08:28:00,22.1,10.3,30.12,SSW,202,1.6,2.3,60,0.00,OVC,SCT,0.00,0.0,WeatherDisplay:10.37,2013-02-03 14:28:00,
2013-02-03 08:34:00,22.6,10.4,30.12,WSW,248,2.9,4.0,59,0.00,OVC,SCT,0.00,0.0,WeatherDisplay:10.37,2013-02-03 14:34:00,
2013-02-03 08:39:00,23.2,9.8,30.12,West,270,2.9,4.6,56,0.00,OVC,SCT,0.00,0.0,WeatherDisplay:10.37,2013-02-03 14:39:00,
2013-02-03 08:44:00,23.7,9.9,30.12,WSW,248,3.8,4.6,55,0.00,OVC,SCT,0.00,0.0,WeatherDisplay:10.37,2013-02-03 14:44:00,
2013-02-03 08:49:00,24.1,9.8,30.12,West,270,3.3,4.6,54,0.00,OVC,SCT,0.00,0.0,WeatherDisplay:10.37,2013-02-03 14:49:00,
2013-02-03 08:54:00,24.6,10.3,30.12,WNW,292,2.4,3.5,54,0.00,OVC,SCT,0.00,0.0,WeatherDisplay:10.37,2013-02-03 14:54:00,
2013-02-03 08:59:00,25.2,10.8,30.12,WSW,248,2.6,3.5,54,0.00,OVC,SCT,0.00,0.0,WeatherDisplay:10.37,2013-02-03 14:59:00,
2013-02-03 09:04:00,25.7,11.3,30.12,WSW,248,3.6,4.6,54,0.00,OVC,SCT,0.00,0.0,WeatherDisplay:10.37,2013-02-03 15:04:00,
2013-02-03 09:09:00,26.1,11.7,30.12,West,270,2.9,3.6,54,0.00,OVC,SCT,0.00,0.0,WeatherDisplay:10.37,2013-02-03 15:09:00,
2013-02-03 09:14:00,26.6,12.6,30.12,SSW,202,3.6,4.6,55,0.00,OVC,SCT,0.00,0.0,WeatherDisplay:10.37,2013-02-03 15:14:00,
2013-02-03 09:19:00,27.1,13.5,30.12,SSW,202,3.1,4.6,56,0.00,OVC,SCT,0.00,0.0,WeatherDisplay:10.37,2013-02-03 15:19:00,
2013-02-03 09:24:00,27.7,13.2,30.09,SSW,202,3.8,6.2,54,0.00,OVC,SCT,0.00,0.0,WeatherDisplay:10.37,2013-02-03 15:24:00,
2013-02-03 09:30:00,28.0,13.5,30.09,WSW,248,3.8,4.9,54,0.00,OVC,SCT,0.00,0.0,WeatherDisplay:10.37,2013-02-03 15:30:00,
2013-02-03 09:35:00,28.0,13.1,30.09,West,270,4.5,5.8,53,0.00,OVC,SCT,0.00,0.0,WeatherDisplay:10.37,2013-02-03 15:35:00,
2013-02-03 09:40:00,28.6,13.6,30.12,SSW,202,3.3,5.8,53,0.00,OVC,SCT,0.00,0.0,WeatherDisplay:10.37,2013-02-03 15:40:00,
2013-02-03 09:45:00,28.9,13.9,30.12,SW,225,2.9,3.5,53,0.00,OVC,SCT,0.00,0.0,WeatherDisplay:10.37,2013-02-03 15:45:00,
2013-02-03 09:50:00,29.3,14.3,30.12,SSE,158,2.4,3.5,53,0.00,OVC,SCT,0.00,0.0,WeatherDisplay:10.37,2013-02-03 15:50:00,
2013-02-03 09:55:00,29.5,14.0,30.09,WSW,248,4.0,4.6,52,0.00,OVC,SCT,0.00,0.0,WeatherDisplay:10.37,2013-02-03 15:55:00,
2013-02-03 10:00:00,29.7,14.2,30.09,SW,225,4.7,6.9,52,0.00,OVC,SCT,0.00,0.0,WeatherDisplay:10.37,2013-02-03 16:00:00,
2013-02-03 10:05:00,30.2,15.5,30.09,SSW,202,4.5,5.8,54,0.00,OVC,SCT,0.00,0.0,WeatherDisplay:10.37,2013-02-03 16:05:00,
2013-02-03 10:10:00,30.2,14.7,30.09,South,180,2.9,4.6,52,0.00,OVC,SCT,0.00,0.0,WeatherDisplay:10.37,2013-02-03 16:10:00,
2013-02-03 10:15:00,30.6,15.0,30.09,WSW,248,3.8,4.6,52,0.00,OVC,SCT,0.00,0.0,WeatherDisplay:10.37,2013-02-03 16:15:00,
2013-02-03 10:20:00,31.1,16.4,30.09,SSW,202,4.0,5.9,54,0.00,OVC,SCT,0.00,0.0,WeatherDisplay:10.37,2013-02-03 16:20:00,
2013-02-03 10:25:00,30.9,15.3,30.09,SSW,202,4.5,5.8,52,0.00,OVC,SCT,0.00,0.0,WeatherDisplay:10.37,2013-02-03 16:25:00,
2013-02-03 10:31:00,31.1,16.4,30.09,SSW,202,4.9,8.1,54,0.00,OVC,SCT,0.00,0.0,WeatherDisplay:10.37,2013-02-03 16:31:00,
2013-02-03 10:36:00,31.5,17.1,30.09,SSW,202,4.9,6.9,55,0.00,OVC,SCT,0.00,0.0,WeatherDisplay:10.37,2013-02-03 16:36:00,
2013-02-03 10:41:00,31.6,17.7,30.06,SSW,202,6.0,6.9,56,0.00,OVC,SCT,0.00,0.0,WeatherDisplay:10.37,2013-02-03 16:41:00,
2013-02-03 10:46:00,32.0,17.6,30.06,SW,225,6.4,7.6,55,0.00,OVC,SCT,0.00,0.0,WeatherDisplay:10.37,2013-02-03 16:46:00,
2013-02-03 10:51:00,32.2,17.8,30.06,WSW,248,6.7,9.2,55,0.00,OVC,SCT,0.00,0.0,WeatherDisplay:10.37,2013-02-03 16:51:00,
2013-02-03 10:56:00,32.5,18.1,30.06,WSW,248,5.9,8.1,55,0.00,OVC,SCT,0.00,100.0,WeatherDisplay:10.37,2013-02-03 16:56:00,
2013-02-03 11:01:00,32.5,18.1,30.06,SSW,202,6.9,8.7,55,0.00,OVC,SCT,0.00,100.0,WeatherDisplay:10.37,2013-02-03 17:01:00,
2013-02-03 11:07:00,33.1,19.1,30.06,WSW,248,6.4,8.1,56,0.00,OVC,SCT,0.00,0.0,WeatherDisplay:10.37,2013-02-03 17:07:00,
2013-02-03 11:12:00,33.3,18.4,30.06,SSW,202,6.2,8.1,54,0.00,OVC,SCT,0.00,0.0,WeatherDisplay:10.37,2013-02-03 17:12:00,
2013-02-03 11:17:00,34.2,19.7,30.06,WSW,248,5.6,5.8,55,0.00,OVC,SCT,0.00,100.0,WeatherDisplay:10.37,2013-02-03 17:17:00,
2013-02-03 11:22:00,34.3,19.0,30.06,SE,135,6.2,6.9,53,0.00,OVC,SCT,0.00,100.0,WeatherDisplay:10.37,2013-02-03 17:22:00,
2013-02-03 11:27:00,34.2,17.4,30.06,SSW,202,6.9,8.1,50,0.00,OVC,SCT,0.00,100.0,WeatherDisplay:10.37,2013-02-03 17:27:00,
2013-02-03 11:32:00,34.5,18.2,30.06,South,180,5.4,7.1,51,0.00,OVC,SCT,0.00,100.0,WeatherDisplay:10.37,2013-02-03 17:32:00,
2013-02-03 11:37:00,34.5,17.8,30.06,WSW,248,8.7,10.4,50,0.00,OVC,SCT,0.00,100.0,WeatherDisplay:10.37,2013-02-03 17:37:00,
2013-02-03 11:42:00,34.9,18.1,30.06,SW,225,5.6,6.9,50,0.00,OVC,SCT,0.00,100.0,WeatherDisplay:10.37,2013-02-03 17:42:00,
2013-02-03 11:47:00,35.1,16.8,30.06,SSW,202,7.1,9.2,47,0.00,OVC,SCT,0.00,100.0,WeatherDisplay:10.37,2013-02-03 17:47:00,
2013-02-03 11:52:00,35.4,16.2,30.06,SSW,202,7.4,8.5,45,0.00,OVC,SCT,0.00,100.0,WeatherDisplay:10.37,2013-02-03 17:52:00,
2013-02-03 11:57:00,35.6,15.3,30.06,SW,225,5.6,8.1,43,0.00,OVC,SCT,0.00,100.0,WeatherDisplay:10.37,2013-02-03 17:57:00,
2013-02-03 12:02:00,35.8,15.4,30.06,SSW,202,6.0,10.4,43,0.00,OVC,SCT,0.00,100.0,WeatherDisplay:10.37,2013-02-03 18:02:00,
2013-02-03 12:07:00,36.3,16.5,30.06,WSW,248,5.6,8.5,44,0.00,OVC,SCT,0.00,100.0,WeatherDisplay:10.37,2013-02-03 18:07:00,
2013-02-03 12:12:00,36.1,15.8,30.06,SW,225,5.9,6.9,43,0.00,OVC,SCT,0.00,100.0,WeatherDisplay:10.37,2013-02-03 18:12:00,
2013-02-03 12:17:00,36.7,16.8,30.06,WSW,248,6.4,8.7,44,0.00,OVC,SCT,0.00,100.0,WeatherDisplay:10.37,2013-02-03 18:17:00,
2013-02-03 12:22:00,36.3,14.8,30.03,SW,225,7.1,8.1,41,0.00,OVC,SCT,0.00,100.0,WeatherDisplay:10.37,2013-02-03 18:22:00,
2013-02-03 12:27:00,36.9,15.3,30.03,SSW,202,6.9,10.4,41,0.00,OVC,SCT,0.00,100.0,WeatherDisplay:10.37,2013-02-03 18:27:00,
2013-02-03 12:32:00,37.0,16.0,30.03,WSW,248,6.2,11.5,42,0.00,OVC,SCT,0.00,100.0,WeatherDisplay:10.37,2013-02-03 18:32:00,
2013-02-03 12:37:00,37.0,16.0,30.00,SSW,202,7.6,9.2,42,0.00,OVC,SCT,0.00,100.0,WeatherDisplay:10.37,2013-02-03 18:37:00,
2013-02-03 12:42:00,37.4,15.8,30.00,WSW,248,6.4,10.4,41,0.00,OVC,SCT,0.00,100.0,WeatherDisplay:10.37,2013-02-03 18:42:00,
2013-02-03 12:47:00,37.4,15.2,30.00,SSW,202,10.2,14.7,40,0.00,OVC,SCT,0.00,100.0,WeatherDisplay:10.37,2013-02-03 18:47:00,
2013-02-03 12:53:00,37.6,16.0,30.00,SSW,202,7.8,10.4,41,0.00,OVC,SCT,0.00,100.0,WeatherDisplay:10.37,2013-02-03 18:53:00,
2013-02-03 12:58:00,37.8,16.1,30.00,SW,225,8.7,11.5,41,0.00,OVC,SCT,0.00,100.0,WeatherDisplay:10.37,2013-02-03 18:58:00,
2013-02-03 13:03:00,37.9,15.7,30.00,SSW,202,8.5,9.2,40,0.00,OVC,SCT,0.00,100.0,WeatherDisplay:10.37,2013-02-03 19:03:00,
2013-02-03 13:08:00,38.3,16.1,30.00,SSW,202,7.6,9.8,40,0.00,OVC,SCT,0.00,100.0,WeatherDisplay:10.37,2013-02-03 19:08:00,
2013-02-03 13:13:00,38.1,16.5,30.00,SSW,202,8.5,9.2,41,0.00,OVC,SCT,0.00,100.0,WeatherDisplay:10.37,2013-02-03 19:13:00,
2013-02-03 13:18:00,38.5,16.2,30.00,SSW,202,8.5,10.4,40,0.00,OVC,SCT,0.00,100.0,WeatherDisplay:10.37,2013-02-03 19:18:00,
2013-02-03 13:23:00,38.8,17.1,30.00,SSW,202,8.5,12.7,41,0.00,OVC,SCT,0.00,100.0,WeatherDisplay:10.37,2013-02-03 19:23:00,
2013-02-03 13:29:00,39.2,18.0,30.00,SSW,202,7.8,10.4,42,0.00,OVC,SCT,0.00,100.0,WeatherDisplay:10.37,2013-02-03 19:29:00,
2013-02-03 13:34:00,39.4,17.0,30.00,WSW,248,6.9,15.0,40,0.00,OVC,SCT,0.00,100.0,WeatherDisplay:10.37,2013-02-03 19:34:00,
2013-02-03 13:39:00,39.2,16.3,29.97,SSW,202,9.2,11.5,39,0.00,OVC,SCT,0.00,100.0,WeatherDisplay:10.37,2013-02-03 19:39:00,
2013-02-03 13:44:00,39.4,17.0,29.97,SSE,158,6.7,11.5,40,0.00,OVC,SCT,0.00,100.0,WeatherDisplay:10.37,2013-02-03 19:44:00,
2013-02-03 13:49:00,39.4,17.0,29.97,SSW,202,6.4,10.4,40,0.00,OVC,SCT,0.00,100.0,WeatherDisplay:10.37,2013-02-03 19:49:00,
2013-02-03 13:54:00,39.7,17.4,29.97,WSW,248,8.5,10.4,40,0.00,OVC,SCT,0.00,100.0,WeatherDisplay:10.37,2013-02-03 19:54:00,
2013-02-03 13:59:00,39.9,17.5,29.97,SSW,202,8.5,10.7,40,0.00,OVC,SCT,0.00,100.0,WeatherDisplay:10.37,2013-02-03 19:59:00,
2013-02-03 14:04:00,39.9,17.5,29.97,SW,225,8.1,11.5,40,0.00,OVC,SCT,0.00,0.0,WeatherDisplay:10.37,2013-02-03 20:04:00,
2013-02-03 14:09:00,40.1,17.7,29.94,West,270,8.1,11.8,40,0.00,OVC,SCT,0.00,0.0,WeatherDisplay:10.37,2013-02-03 20:09:00,
2013-02-03 14:14:00,39.9,18.1,29.94,SSW,202,9.0,11.5,41,0.00,OVC,SCT,0.00,0.0,WeatherDisplay:10.37,2013-02-03 20:14:00,
2013-02-03 14:20:00,40.3,17.8,29.94,SW,225,8.7,9.2,40,0.00,OVC,SCT,0.00,0.0,WeatherDisplay:10.37,2013-02-03 20:20:00,
2013-02-03 14:25:00,40.5,18.6,29.94,SSW,202,8.1,9.2,41,0.00,OVC,SCT,0.00,0.0,WeatherDisplay:10.37,2013-02-03 20:25:00,
2013-02-03 14:30:00,40.3,17.8,29.94,WSW,248,9.0,12.7,40,0.00,OVC,SCT,0.00,0.0,WeatherDisplay:10.37,2013-02-03 20:30:00,
2013-02-03 14:35:00,40.5,18.0,29.94,SSW,202,6.7,10.4,40,0.00,OVC,SCT,0.00,0.0,WeatherDisplay:10.37,2013-02-03 20:35:00,
2013-02-03 14:40:00,40.6,18.2,29.94,WSW,248,7.4,10.4,40,0.00,OVC,SCT,0.00,0.0,WeatherDisplay:10.37,2013-02-03 20:40:00,
2013-02-03 14:45:00,40.8,18.3,29.94,SSW,202,8.5,11.5,40,0.00,OVC,SCT,0.00,0.0,WeatherDisplay:10.37,2013-02-03 20:45:00,
2013-02-03 14:50:00,40.8,18.3,29.94,SSW,202,8.7,12.7,40,0.00,OVC,SCT,0.00,0.0,WeatherDisplay:10.37,2013-02-03 20:50:00,
2013-02-03 14:55:00,41.0,18.5,29.94,SSW,202,8.5,10.4,40,0.00,OVC,SCT,0.00,0.0,WeatherDisplay:10.37,2013-02-03 20:55:00,
2013-02-03 15:00:00,40.6,18.7,29.94,SSW,202,8.1,10.4,41,0.00,OVC,SCT,0.00,0.0,WeatherDisplay:10.37,2013-02-03 21:00:00,
2013-02-03 15:05:00,41.0,19.1,29.94,WSW,248,5.6,8.1,41,0.00,OVC,SCT,0.00,0.0,WeatherDisplay:10.37,2013-02-03 21:05:00,
2013-02-03 15:10:00,41.2,19.8,29.91,WSW,248,5.4,8.7,42,0.00,OVC,SCT,0.00,0.0,WeatherDisplay:10.37,2013-02-03 21:10:00,
2013-02-03 15:15:00,41.0,19.1,29.91,West,270,8.1,9.2,41,0.00,OVC,SCT,0.00,0.0,WeatherDisplay:10.37,2013-02-03 21:15:00,
2013-02-03 15:20:00,41.2,19.8,29.91,SSW,202,9.0,12.7,42,0.00,OVC,SCT,0.00,0.0,WeatherDisplay:10.37,2013-02-03 21:20:00,
2013-02-03 15:25:00,41.0,19.1,29.88,SSW,202,7.4,10.4,41,0.00,OVC,SCT,0.00,0.0,WeatherDisplay:10.37,2013-02-03 21:25:00,
2013-02-03 15:30:00,41.2,19.2,29.88,SSE,158,8.5,9.2,41,0.00,OVC,SCT,0.00,0.0,WeatherDisplay:10.37,2013-02-03 21:30:00,
2013-02-03 15:36:00,41.7,19.7,29.88,SSE,158,5.6,9.2,41,0.00,OVC,SCT,0.00,0.0,WeatherDisplay:10.37,2013-02-03 21:36:00,
2013-02-03 15:41:00,41.7,19.7,29.88,SSW,202,8.7,10.4,41,0.00,OVC,SCT,0.00,0.0,WeatherDisplay:10.37,2013-02-03 21:41:00,
2013-02-03 15:46:00,41.5,19.6,29.88,SSW,202,8.7,10.4,41,0.00,OVC,SCT,0.00,0.0,WeatherDisplay:10.37,2013-02-03 21:46:00,
2013-02-03 15:51:00,41.4,19.4,29.88,WSW,248,8.7,12.7,41,0.00,OVC,SCT,0.00,0.0,WeatherDisplay:10.37,2013-02-03 21:51:00,
2013-02-03 15:56:00,41.5,19.0,29.88,SSW,202,7.1,10.4,40,0.00,OVC,SCT,0.00,0.0,WeatherDisplay:10.37,2013-02-03 21:56:00,
2013-02-03 16:01:00,41.4,19.4,29.88,WSW,248,7.1,9.8,41,0.00,OVC,SCT,0.00,0.0,WeatherDisplay:10.37,2013-02-03 22:01:00,
2013-02-03 16:06:00,41.2,19.2,29.88,WSW,248,6.4,9.2,41,0.00,OVC,SCT,0.00,0.0,WeatherDisplay:10.37,2013-02-03 22:06:00,
2013-02-03 16:11:00,41.2,19.2,29.88,WNW,292,4.7,10.4,41,0.00,OVC,SCT,0.00,0.0,WeatherDisplay:10.37,2013-02-03 22:11:00,
2013-02-03 16:16:00,41.0,19.6,29.88,SSW,202,6.7,10.4,42,0.00,OVC,SCT,0.00,0.0,WeatherDisplay:10.37,2013-02-03 22:16:00,
2013-02-03 16:21:00,41.0,19.6,29.88,South,180,5.4,8.5,42,0.00,OVC,SCT,0.00,0.0,WeatherDisplay:10.37,2013-02-03 22:21:00,
2013-02-03 16:27:00,41.0,19.6,29.88,West,270,4.9,7.6,42,0.00,OVC,SCT,0.00,0.0,WeatherDisplay:10.37,2013-02-03 22:27:00,
2013-02-03 16:32:00,41.0,19.1,29.88,SSW,202,8.1,10.4,41,0.00,OVC,SCT,0.00,0.0,WeatherDisplay:10.37,2013-02-03 22:32:00,
2013-02-03 16:37:00,40.8,19.5,29.88,SSW,202,4.3,5.8,42,0.00,OVC,SCT,0.00,0.0,WeatherDisplay:10.37,2013-02-03 22:37:00,
2013-02-03 16:42:00,40.6,19.3,29.85,SSW,202,5.9,6.9,42,0.00,OVC,SCT,0.00,0.0,WeatherDisplay:10.37,2013-02-03 22:42:00,
2013-02-03 16:47:00,40.6,19.3,29.85,South,180,6.2,6.2,42,0.00,OVC,SCT,0.00,0.0,WeatherDisplay:10.37,2013-02-03 22:47:00,
2013-02-03 16:52:00,40.6,19.3,29.85,SSW,202,5.9,5.9,42,0.00,OVC,SCT,0.00,0.0,WeatherDisplay:10.37,2013-02-03 22:52:00,
2013-02-03 16:57:00,40.5,19.7,29.85,South,180,4.5,5.9,43,0.00,OVC,SCT,0.00,0.0,WeatherDisplay:10.37,2013-02-03 22:57:00,
2013-02-03 17:02:00,40.3,19.5,29.85,SSW,202,4.9,5.4,43,0.00,OVC,SCT,0.00,0.0,WeatherDisplay:10.37,2013-02-03 23:02:00,
2013-02-03 17:08:00,39.9,19.7,29.85,SSW,202,3.1,3.5,44,0.00,OVC,SCT,0.00,0.0,WeatherDisplay:10.37,2013-02-03 23:08:00,
2013-02-03 17:13:00,39.9,19.7,29.85,SW,225,4.5,8.1,44,0.00,OVC,SCT,0.00,0.0,WeatherDisplay:10.37,2013-02-03 23:13:00,
2013-02-03 17:18:00,39.7,19.6,29.85,SSW,202,6.0,8.5,44,0.00,OVC,SCT,0.00,0.0,WeatherDisplay:10.37,2013-02-03 23:18:00,
2013-02-03 17:23:00,39.6,19.9,29.85,ESE,112,4.3,4.6,45,0.00,OVC,SCT,0.00,0.0,WeatherDisplay:10.37,2013-02-03 23:23:00,
2013-02-03 17:28:00,39.4,19.8,29.85,WSW,248,5.9,6.4,45,0.00,OVC,SCT,0.00,0.0,WeatherDisplay:10.37,2013-02-03 23:28:00,
2013-02-03 17:33:00,39.4,20.3,29.85,SSW,202,4.3,5.8,46,0.00,OVC,SCT,0.00,0.0,WeatherDisplay:10.37,2013-02-03 23:33:00,
2013-02-03 17:38:00,39.2,20.1,29.83,SSW,202,4.3,5.8,46,0.00,OVC,SCT,0.00,0.0,WeatherDisplay:10.37,2013-02-03 23:38:00,
2013-02-03 17:43:00,39.2,20.1,29.83,SSW,202,4.5,9.2,46,0.00,OVC,SCT,0.00,0.0,WeatherDisplay:10.37,2013-02-03 23:43:00,
2013-02-03 17:48:00,39.0,20.0,29.83,South,180,4.9,5.8,46,0.00,OVC,SCT,0.00,0.0,WeatherDisplay:10.37,2013-02-03 23:48:00,
2013-02-03 17:53:00,38.8,20.3,29.83,ESE,112,4.3,6.9,47,0.00,OVC,SCT,0.00,0.0,WeatherDisplay:10.37,2013-02-03 23:53:00,
2013-02-03 17:58:00,38.8,20.3,29.83,SSW,202,5.9,8.1,47,0.00,OVC,SCT,0.00,0.0,WeatherDisplay:10.37,2013-02-03 23:58:00,
2013-02-03 18:04:00,38.8,20.3,29.83,SSE,158,4.3,6.9,47,0.00,CLR,SCT,0.00,0.0,WeatherDisplay:10.37,2013-02-04 00:04:00,
2013-02-03 18:09:00,38.7,20.6,29.83,SSW,202,3.3,6.9,48,0.00,CLR,SCT,0.00,0.0,WeatherDisplay:10.37,2013-02-04 00:09:00,
2013-02-03 18:14:00,38.5,20.5,29.83,SSE,158,4.9,5.9,48,0.00,CLR,SCT,0.00,0.0,WeatherDisplay:10.37,2013-02-04 00:14:00,
2013-02-03 18:19:00,38.5,21.0,29.83,ESE,112,3.8,5.8,49,0.00,CLR,SCT,0.00,0.0,WeatherDisplay:10.37,2013-02-04 00:19:00,
2013-02-03 18:24:00,38.5,21.0,29.83,South,180,2.6,3.8,49,0.00,CLR,SCT,0.00,0.0,WeatherDisplay:10.37,2013-02-04 00:24:00,
2013-02-03 18:29:00,38.3,20.8,29.83,South,180,1.4,3.5,49,0.00,CLR,SCT,0.00,0.0,WeatherDisplay:10.37,2013-02-04 00:29:00,
2013-02-03 18:34:00,38.1,20.1,29.83,ESE,112,2.2,2.6,48,0.00,CLR,SCT,0.00,0.0,WeatherDisplay:10.37,2013-02-04 00:34:00,
2013-02-03 18:39:00,37.8,20.3,29.83,SSE,158,1.6,2.3,49,0.00,CLR,SCT,0.00,0.0,WeatherDisplay:10.37,2013-02-04 00:39:00,
2013-02-03 18:44:00,37.4,20.4,29.83,ESE,112,0.9,3.5,50,0.00,CLR,SCT,0.00,0.0,WeatherDisplay:10.37,2013-02-04 00:44:00,
2013-02-03 18:50:00,37.2,20.3,29.83,ESE,112,2.2,3.5,50,0.00,CLR,SCT,0.00,0.0,WeatherDisplay:10.37,2013-02-04 00:50:00,
2013-02-03 18:55:00,37.0,20.1,29.83,ESE,112,1.4,1.4,50,0.00,CLR,SCT,0.00,0.0,WeatherDisplay:10.37,2013-02-04 00:55:00,
2013-02-03 19:00:00,36.9,19.9,29.83,South,180,2.2,2.3,50,0.00,CLR,SCT,0.00,0.0,WeatherDisplay:10.37,2013-02-04 01:00:00,
2013-02-03 19:05:00,36.9,19.9,29.83,SSE,158,0.9,2.3,50,0.00,CLR,SCT,0.00,0.0,WeatherDisplay:10.37,2013-02-04 01:05:00,
2013-02-03 19:10:00,36.9,20.9,29.83,SSE,158,1.1,2.3,52,0.00,CLR,SCT,0.00,0.0,WeatherDisplay:10.37,2013-02-04 01:10:00,
2013-02-03 19:15:00,36.7,20.2,29.83,SSE,158,1.6,2.3,51,0.00,CLR,SCT,0.00,0.0,WeatherDisplay:10.37,2013-02-04 01:15:00,
2013-02-03 19:20:00,36.7,20.2,29.83,SSE,158,1.6,3.5,51,0.00,CLR,SCT,0.00,0.0,WeatherDisplay:10.37,2013-02-04 01:20:00,
2013-02-03 19:25:00,36.7,21.1,29.83,SSE,158,2.0,3.8,53,0.00,CLR,SCT,0.00,0.0,WeatherDisplay:10.37,2013-02-04 01:25:00,
2013-02-03 19:30:00,36.7,21.1,29.83,SE,135,1.4,3.5,53,0.00,CLR,SCT,0.00,0.0,WeatherDisplay:10.37,2013-02-04 01:30:00,
2013-02-03 19:36:00,36.7,21.1,29.83,East,90,1.6,3.5,53,0.00,CLR,SCT,0.00,0.0,WeatherDisplay:10.37,2013-02-04 01:36:00,
2013-02-03 19:41:00,36.5,20.5,29.83,East,90,1.4,2.3,52,0.00,CLR,SCT,0.00,0.0,WeatherDisplay:10.37,2013-02-04 01:41:00,
2013-02-03 19:46:00,36.3,20.4,29.83,SSE,158,2.0,2.6,52,0.00,CLR,SCT,0.00,0.0,WeatherDisplay:10.37,2013-02-04 01:46:00,
2013-02-03 19:51:00,36.3,20.4,29.83,ESE,112,1.6,2.4,52,0.00,CLR,SCT,0.00,0.0,WeatherDisplay:10.37,2013-02-04 01:51:00,
2013-02-03 19:56:00,36.3,20.8,29.83,South,180,2.2,2.6,53,0.00,CLR,SCT,0.00,0.0,WeatherDisplay:10.37,2013-02-04 01:56:00,
2013-02-03 20:01:00,36.3,20.8,29.83,East,90,1.6,2.3,53,0.00,CLR,SCT,0.00,0.0,WeatherDisplay:10.37,2013-02-04 02:01:00,
2013-02-03 20:06:00,36.3,20.8,29.83,ESE,112,2.0,2.3,53,0.00,CLR,SCT,0.00,0.0,WeatherDisplay:10.37,2013-02-04 02:06:00,
2013-02-03 20:11:00,36.3,20.8,29.83,SSE,158,2.0,2.4,53,0.00,CLR,SCT,0.00,0.0,WeatherDisplay:10.37,2013-02-04 02:11:00,
2013-02-03 20:16:00,36.3,20.8,29.83,SSE,158,2.2,2.4,53,0.00,CLR,SCT,0.00,0.0,WeatherDisplay:10.37,2013-02-04 02:16:00,
2013-02-03 20:21:00,36.3,22.1,29.83,SSW,202,2.6,3.5,56,0.00,CLR,SCT,0.00,0.0,WeatherDisplay:10.37,2013-02-04 02:21:00,
2013-02-03 20:26:00,36.3,22.5,29.83,SSW,202,2.4,3.5,57,0.00,CLR,SCT,0.00,0.0,WeatherDisplay:10.37,2013-02-04 02:26:00,
2013-02-03 20:31:00,36.5,22.7,29.83,South,180,2.6,4.6,57,0.00,CLR,SCT,0.00,0.0,WeatherDisplay:10.37,2013-02-04 02:31:00,
2013-02-03 20:36:00,36.5,22.7,29.83,SSE,158,4.0,5.8,57,0.00,CLR,SCT,0.00,0.0,WeatherDisplay:10.37,2013-02-04 02:36:00,
2013-02-03 20:41:00,36.5,22.7,29.80,WSW,248,2.9,3.8,57,0.00,CLR,SCT,0.00,0.0,WeatherDisplay:10.37,2013-02-04 02:41:00,
2013-02-03 20:46:00,36.5,22.7,29.80,South,180,3.6,3.8,57,0.00,CLR,SCT,0.00,0.0,WeatherDisplay:10.37,2013-02-04 02:46:00,
2013-02-03 20:52:00,36.5,22.7,29.80,SSW,202,2.6,3.6,57,0.00,CLR,SCT,0.00,0.0,WeatherDisplay:10.37,2013-02-04 02:52:00,
2013-02-03 20:57:00,36.5,22.7,29.80,ESE,112,3.3,3.5,57,0.00,CLR,SCT,0.00,0.0,WeatherDisplay:10.37,2013-02-04 02:57:00,
2013-02-03 21:02:00,36.3,22.5,29.80,SSW,202,3.3,3.6,57,0.00,CLR,SCT,0.00,0.0,WeatherDisplay:10.37,2013-02-04 03:02:00,
2013-02-03 21:07:00,36.3,22.9,29.77,South,180,4.5,6.9,58,0.00,CLR,SCT,0.00,0.0,WeatherDisplay:10.37,2013-02-04 03:07:00,
2013-02-03 21:12:00,36.5,23.1,29.77,SSW,202,3.8,4.6,58,0.00,CLR,SCT,0.00,0.0,WeatherDisplay:10.37,2013-02-04 03:12:00,
2013-02-03 21:17:00,36.5,23.1,29.77,SSW,202,3.6,4.6,58,0.00,CLR,SCT,0.00,0.0,WeatherDisplay:10.37,2013-02-04 03:17:00,
2013-02-03 21:22:00,36.3,22.9,29.77,SSW,202,3.6,4.6,58,0.00,CLR,SCT,0.00,0.0,WeatherDisplay:10.37,2013-02-04 03:22:00,
2013-02-03 21:27:00,36.3,22.9,29.77,SSE,158,3.3,3.5,58,0.00,CLR,SCT,0.00,0.0,WeatherDisplay:10.37,2013-02-04 03:27:00,
2013-02-03 21:33:00,36.1,22.8,29.77,SSE,158,3.6,4.6,58,0.00,CLR,SCT,0.00,0.0,WeatherDisplay:10.37,2013-02-04 03:33:00,
2013-02-03 21:38:00,36.0,23.0,29.77,ESE,112,2.9,5.8,59,0.00,CLR,SCT,0.00,0.0,WeatherDisplay:10.37,2013-02-04 03:38:00,
2013-02-03 21:42:00,36.0,23.0,29.77,SSE,158,3.3,3.5,59,0.00,CLR,SCT,0.00,0.0,WeatherDisplay:10.37,2013-02-04 03:42:00,
2013-02-03 21:48:00,35.8,23.2,29.77,SSW,202,2.9,3.5,60,0.00,CLR,SCT,0.00,0.0,WeatherDisplay:10.37,2013-02-04 03:48:00,
2013-02-03 21:53:00,35.8,23.2,29.77,SSW,202,2.4,2.9,60,0.00,CLR,SCT,0.00,0.0,WeatherDisplay:10.37,2013-02-04 03:53:00,
2013-02-03 21:58:00,35.6,23.1,29.77,South,180,2.2,3.8,60,0.00,CLR,SCT,0.00,0.0,WeatherDisplay:10.37,2013-02-04 03:58:00,
2013-02-03 22:03:00,35.6,23.5,29.77,South,180,2.9,3.5,61,0.00,CLR,SCT,0.00,0.0,WeatherDisplay:10.37,2013-02-04 04:03:00,
2013-02-03 22:08:00,35.6,23.1,29.74,SSE,158,2.9,4.6,60,0.00,CLR,SCT,0.00,0.0,WeatherDisplay:10.37,2013-02-04 04:08:00,
2013-02-03 22:13:00,35.8,23.6,29.74,South,180,3.6,4.6,61,0.00,CLR,SCT,0.00,0.0,WeatherDisplay:10.37,2013-02-04 04:13:00,
2013-02-03 22:18:00,36.1,23.6,29.74,South,180,3.8,5.8,60,0.00,CLR,SCT,0.00,0.0,WeatherDisplay:10.37,2013-02-04 04:18:00,
2013-02-03 22:23:00,36.1,23.6,29.74,South,180,2.9,4.6,60,0.00,CLR,SCT,0.00,0.0,WeatherDisplay:10.37,2013-02-04 04:23:00,
2013-02-03 22:28:00,36.3,23.3,29.74,SSW,202,3.8,5.8,59,0.00,CLR,SCT,0.00,0.0,WeatherDisplay:10.37,2013-02-04 04:28:00,
2013-02-03 22:33:00,36.3,23.3,29.74,SW,225,3.3,4.6,59,0.00,CLR,SCT,0.00,0.0,WeatherDisplay:10.37,2013-02-04 04:33:00,
2013-02-03 22:38:00,36.7,23.3,29.77,WSW,248,3.6,4.6,58,0.00,CLR,SCT,0.00,0.0,WeatherDisplay:10.37,2013-02-04 04:38:00,
2013-02-03 22:43:00,37.2,22.9,29.77,SSW,202,4.5,5.8,56,0.00,CLR,SCT,0.00,0.0,WeatherDisplay:10.37,2013-02-04 04:43:00,
2013-02-03 22:48:00,37.6,22.4,29.77,WSW,248,5.6,6.4,54,0.00,CLR,SCT,0.00,0.0,WeatherDisplay:10.37,2013-02-04 04:48:00,
2013-02-03 22:53:00,37.8,22.6,29.77,WSW,248,5.4,8.1,54,0.00,CLR,SCT,0.00,0.0,WeatherDisplay:10.37,2013-02-04 04:53:00,
2013-02-03 22:58:00,37.8,22.6,29.77,WSW,248,4.5,5.8,54,0.00,CLR,SCT,0.00,0.0,WeatherDisplay:10.37,2013-02-04 04:58:00,
2013-02-03 23:00:00,37.6,22.4,29.77,WSW,248,3.8,6.9,54,0.00,CLR,SCT,0.00,0.0,WeatherDisplay:10.37,2013-02-04 05:00:00,
2013-02-03 23:01:00,37.6,22.4,29.77,WSW,248,3.3,4.3,54,0.00,CLR,SCT,0.00,0.0,WeatherDisplay:10.37,2013-02-04 05:01:00,
2013-02-03 23:02:00,37.4,22.3,29.77,WSW,248,3.3,5.4,54,0.00,CLR,SCT,0.00,0.0,WeatherDisplay:10.37,2013-02-04 05:02:00,
2013-02-03 23:03:00,37.6,22.4,29.77,SSW,202,5.4,5.8,54,0.00,CLR,SCT,0.00,0.0,WeatherDisplay:10.37,2013-02-04 05:03:00,
2013-02-03 23:08:00,37.9,22.3,29.77,SSW,202,5.4,7.1,53,0.00,CLR,SCT,0.00,0.0,WeatherDisplay:10.37,2013-02-04 05:08:00,
2013-02-03 23:13:00,37.9,22.3,29.77,WSW,248,4.7,5.4,53,0.00,CLR,SCT,0.00,0.0,WeatherDisplay:10.37,2013-02-04 05:13:00,
2013-02-03 23:18:00,38.1,22.5,29.77,WSW,248,6.0,6.9,53,0.00,CLR,SCT,0.00,0.0,WeatherDisplay:10.37,2013-02-04 05:18:00,
2013-02-03 23:23:00,37.9,22.3,29.77,WSW,248,4.3,5.8,53,0.00,CLR,SCT,0.00,0.0,WeatherDisplay:10.37,2013-02-04 05:23:00,
2013-02-03 23:28:00,37.9,22.3,29.77,WSW,248,4.7,5.8,53,0.00,CLR,SCT,0.00,0.0,WeatherDisplay:10.37,2013-02-04 05:28:00,
2013-02-03 23:33:00,38.1,22.5,29.77,WSW,248,4.3,5.8,53,0.00,CLR,SCT,0.00,0.0,WeatherDisplay:10.37,2013-02-04 05:33:00,
2013-02-03 23:38:00,37.9,22.3,29.74,SW,225,4.5,5.9,53,0.00,CLR,SCT,0.00,0.0,WeatherDisplay:10.37,2013-02-04 05:38:00,
2013-02-03 23:43:00,37.8,22.1,29.74,WSW,248,2.9,4.6,53,0.00,CLR,SCT,0.00,0.0,WeatherDisplay:10.37,2013-02-04 05:43:00,
2013-02-03 23:48:00,37.4,21.8,29.74,SW,225,2.4,2.4,53,0.00,CLR,SCT,0.00,0.0,WeatherDisplay:10.37,2013-02-04 05:48:00,
2013-02-03 23:53:00,36.9,22.2,29.74,WSW,248,3.3,4.6,55,0.00,CLR,SCT,0.00,0.0,WeatherDisplay:10.37,2013-02-04 05:53:00,
2013-02-03 23:58:00,36.7,22.0,29.74,WSW,248,3.6,3.6,55,0.00,CLR,SCT,0.00,0.0,WeatherDisplay:10.37,2013-02-04 05:58:00,